QPF
0.00 0.01 0.01 0.02 0.01 0.01 0.01 0.00 0.00 0.00 0.00 0.00 0.01 0.01 0.02 0.02 0.02 0.04 0.05 0.06 0.06 0.08 0.12 0.15 0.13 0.13 0.12 0.09 0.08 0.09 0.08 0.08 0.11 0.10 0.08 0.11 0.15 0.12 0.10 0.09 0.06 0.06 0.07
0.00 0.00 0.01 0.01 0.01 0.01 0.01 0.00 0.00 0.00 0.00 0.00 0.01 0.01 0.02 0.03 0.03 0.04 0.06 0.07 0.07 0.07 0.09 0.13 0.15 0.12 0.10 0.09 0.10 0.10 0.08 0.08 0.11 0.12 0.10 0.12 0.15 0.13 0.11 0.12 0.10 0.07 0.09
0.00 0.00 0.01 0.01 0.01 0.00 0.00 0.00 0.00 0.00 0.00 0.01 0.01 0.01 0.01 0.02 0.02 0.03 0.04 0.07 0.06 0.05 0.06 0.09 0.12 0.09 0.07 0.08 0.10 0.10 0.08 0.09 0.10 0.13 0.11 0.11 0.12 0.13 0.13 0.13 0.14 0.12 0.12
0.00 0.00 0.00 0.00 0.00 0.00 0.00 0.00 0.00 0.00 0.00 0.00 0.01 0.00 0.01 0.01 0.01 0.02 0.03 0.05 0.06 0.05 0.05 0.05 0.06 0.07 0.06 0.07 0.08 0.07 0.06 0.07 0.08 0.10 0.06 0.06 0.08 0.11 0.12 0.12 0.11 0.13 0.12
0.00 0.00 0.00 0.00 0.00 0.00 0.00 0.00 0.00 0.00 0.00 0.00 0.00 0.00 0.01 0.01 0.01 0.01 0.02 0.02 0.03 0.04 0.06 0.06 0.07 0.07 0.07 0.08 0.07 0.07 0.07 0.06 0.05 0.04 0.03 0.03 0.04 0.07 0.08 0.08 0.09 0.09 0.09
0.00 0.00 0.00 0.00 0.00 0.00 0.00 0.00 0.00 0.00 0.00 0.00 0.00 0.00 0.01 0.01 0.01 0.01 0.02 0.02 0.03 0.04 0.03 0.04 0.05 0.05 0.06 0.06 0.05 0.06 0.07 0.07 0.03 0.01 0.01 0.01 0.02 0.05 0.07 0.07 0.06 0.06 0.05
0.00 0.00 0.00 0.00 0.00 0.00 0.00 0.00 0.01 0.01 0.01 0.01 0.01 0.01 0.01 0.01 0.01 0.02 0.02 0.02 0.03 0.04 0.04 0.04 0.04 0.04 0.05 0.07 0.06 0.06 0.07 0.05 0.02 0.01 0.01 0.01 0.02 0.04 0.08 0.10 0.07 0.06 0.05
0.01 0.01 0.00 0.01 0.01 0.00 0.01 0.01 0.01 0.01 0.01 0.01 0.01 0.01 0.01 0.01 0.01 0.02 0.02 0.03 0.05 0.05 0.05 0.03 0.02 0.03 0.04 0.06 0.05 0.05 0.05 0.04 0.02 0.01 0.01 0.01 0.02 0.05 0.07 0.08 0.08 0.08 0.08
0.01 0.01 0.01 0.01 0.01 0.01 0.02 0.01 0.01 0.02 0.03 0.02 0.01 0.01 0.01 0.01 0.01 0.01 0.02 0.03 0.06 0.06 0.04 0.03 0.03 0.05 0.06 0.07 0.06 0.06 0.05 0.04 0.02 0.01 0.01 0.01 0.02 0.04 0.05 0.06 0.06 0.07 0.08
0.02 0.02 0.01 0.02 0.02 0.02 0.03 0.02 0.02 0.03 0.05 0.04 0.02 0.02 0.02 0.02 0.02 0.02 0.02 0.03 0.05 0.05 0.05 0.05 0.05 0.06 0.07 0.07 0.07 0.07 0.06 0.04 0.02 0.01 0.01 0.01 0.03 0.04 0.06 0.07 0.05 0.06 0.06
0.02 0.02 0.02 0.03 0.05 0.06 0.06 0.05 0.04 0.03 0.04 0.05 0.03 0.03 0.02 0.01 0.02 0.02 0.03 0.04 0.05 0.06 0.06 0.07 0.08 0.09 0.09 0.08 0.07 0.07 0.04 0.02 0.02 0.01 0.01 0.02 0.04 0.07 0.09 0.11 0.07 0.04 0.04
0.02 0.03 0.04 0.06 0.04 0.05 0.05 0.04 0.03 0.03 0.03 0.04 0.04 0.03 0.02 0.01 0.02 0.03 0.03 0.04 0.05 0.06 0.06 0.06 0.06 0.06 0.06 0.06 0.07 0.06 0.03 0.02 0.01 0.00 0.01 0.02 0.04 0.07 0.10 0.12 0.08 0.05 0.03
0.02 0.03 0.07 0.08 0.03 0.04 0.04 0.05 0.05 0.04 0.04 0.06 0.06 0.03 0.02 0.02 0.03 0.04 0.03 0.03 0.04 0.06 0.06 0.05 0.04 0.03 0.02 0.02 0.03 0.04 0.04 0.03 0.02 0.02 0.02 0.04 0.05 0.06 0.07 0.09 0.08 0.06 0.03
0.02 0.03 0.10 0.09 0.05 0.03 0.04 0.08 0.11 0.06 0.08 0.11 0.08 0.06 0.04 0.04 0.04 0.04 0.03 0.02 0.03 0.05 0.07 0.04 0.02 0.02 0.02 0.02 0.01 0.02 0.03 0.04 0.03 0.03 0.03 0.04 0.04 0.04 0.06 0.08 0.10 0.06 0.04
0.02 0.02 0.03 0.06 0.04 0.03 0.04 0.06 0.09 0.09 0.08 0.11 0.13 0.07 0.04 0.04 0.06 0.06 0.04 0.02 0.02 0.04 0.06 0.03 0.02 0.01 0.01 0.01 0.01 0.01 0.02 0.02 0.03 0.03 0.02 0.03 0.03 0.04 0.05 0.07 0.08 0.07 0.05
0.02 0.02 0.02 0.04 0.04 0.04 0.04 0.07 0.11 0.08 0.05 0.05 0.12 0.11 0.05 0.04 0.06 0.08 0.07 0.05 0.04 0.04 0.05 0.03 0.03 0.03 0.02 0.02 0.02 0.02 0.02 0.02 0.02 0.03 0.02 0.02 0.02 0.02 0.03 0.05 0.06 0.06 0.06
0.02 0.03 0.03 0.04 0.05 0.06 0.06 0.08 0.10 0.09 0.07 0.05 0.07 0.13 0.10 0.07 0.07 0.08 0.10 0.10 0.08 0.06 0.05 0.06 0.05 0.06 0.05 0.04 0.03 0.02 0.01 0.01 0.02 0.03 0.03 0.02 0.02 0.02 0.03 0.04 0.06 0.06 0.06
0.03 0.03 0.03 0.03 0.05 0.06 0.08 0.10 0.12 0.16 0.13 0.10 0.08 0.10 0.12 0.08 0.08 0.08 0.09 0.09 0.09 0.09 0.09 0.08 0.06 0.06 0.05 0.03 0.02 0.02 0.02 0.02 0.04 0.03 0.03 0.02 0.02 0.01 0.02 0.03 0.06 0.06 0.06
0.03 0.03 0.02 0.03 0.05 0.05 0.06 0.08 0.11 0.13 0.14 0.13 0.09 0.08 0.11 0.08 0.07 0.08 0.09 0.09 0.10 0.10 0.10 0.08 0.07 0.06 0.05 0.03 0.03 0.03 0.03 0.04 0.03 0.03 0.03 0.04 0.03 0.02 0.01 0.02 0.05 0.06 0.06
0.03 0.03 0.02 0.02 0.03 0.04 0.04 0.05 0.07 0.10 0.10 0.11 0.09 0.07 0.08 0.07 0.06 0.06 0.06 0.07 0.10 0.12 0.10 0.07 0.07 0.06 0.05 0.04 0.03 0.03 0.03 0.03 0.03 0.02 0.02 0.02 0.02 0.01 0.01 0.01 0.02 0.04 0.05
0.03 0.02 0.02 0.02 0.02 0.03 0.03 0.06 0.14 0.15 0.09 0.10 0.10 0.09 0.10 0.08 0.06 0.06 0.04 0.04 0.08 0.10 0.10 0.07 0.05 0.04 0.04 0.03 0.03 0.03 0.02 0.03 0.02 0.01 0.01 0.01 0.01 0.01 0.01 0.02 0.02 0.02 0.03
0.02 0.02 0.02 0.02 0.02 0.03 0.05 0.09 0.13 0.12 0.08 0.09 0.10 0.10 0.10 0.09 0.08 0.07 0.05 0.04 0.04 0.05 0.05 0.04 0.04 0.03 0.02 0.02 0.03 0.03 0.02 0.02 0.02 0.01 0.01 0.01 0.01 0.01 0.01 0.01 0.02 0.02 0.02
0.02 0.02 0.02 0.02 0.03 0.05 0.06 0.09 0.10 0.09 0.08 0.08 0.07 0.07 0.07 0.08 0.09 0.07 0.05 0.05 0.03 0.03 0.03 0.02 0.02 0.02 0.02 0.02 0.02 0.02 0.02 0.01 0.02 0.02 0.01 0.01 0.01 0.01 0.01 0.01 0.02 0.02 0.01
0.03 0.04 0.04 0.03 0.04 0.07 0.08 0.09 0.10 0.10 0.09 0.07 0.06 0.06 0.07 0.07 0.07 0.06 0.05 0.05 0.04 0.02 0.02 0.02 0.02 0.03 0.04 0.03 0.02 0.02 0.02 0.01 0.01 0.02 0.03 0.02 0.02 0.01 0.01 0.01 0.02 0.02 0.02
0.04 0.05 0.06 0.07 0.08 0.08 0.09 0.12 0.12 0.12 0.11 0.09 0.08 0.06 0.08 0.09 0.09 0.07 0.05 0.04 0.04 0.03 0.02 0.01 0.01 0.02 0.04 0.03 0.02 0.02 0.03 0.02 0.02 0.01 0.02 0.03 0.03 0.02 0.02 0.02 0.02 0.01 0.01
0.04 0.06 0.08 0.08 0.08 0.08 0.09 0.12 0.15 0.14 0.12 0.11 0.09 0.07 0.06 0.09 0.09 0.09 0.08 0.06 0.04 0.03 0.03 0.03 0.02 0.02 0.03 0.02 0.02 0.02 0.02 0.03 0.03 0.02 0.02 0.02 0.02 0.02 0.02 0.02 0.02 0.02 0.01
MSLP
1007.27 1006.76 1006.51 1006.51 1006.70 1006.97 1007.24 1007.40 1007.43 1007.31 1007.07 1006.81 1006.57 1006.42 1006.38 1006.46 1006.62 1006.83 1007.06 1007.28 1007.51 1007.77 1008.10 1008.53 1009.07 1009.71 1010.42 1011.14 1011.81 1012.37 1012.79 1013.08 1013.24 1013.33 1013.39 1013.47 1013.60 1013.78 1014.02 1014.29 1014.58 1014.85 1015.11
1007.05 1006.63 1006.44 1006.47 1006.66 1006.92 1007.15 1007.30 1007.31 1007.21 1007.03 1006.83 1006.69 1006.63 1006.68 1006.81 1006.99 1007.19 1007.38 1007.55 1007.73 1007.95 1008.25 1008.68 1009.23 1009.90 1010.64 1011.37 1012.04 1012.59 1013.00 1013.27 1013.43 1013.53 1013.60 1013.70 1013.86 1014.06 1014.32 1014.60 1014.89 1015.16 1015.41
1006.83 1006.52 1006.40 1006.47 1006.66 1006.91 1007.12 1007.25 1007.28 1007.21 1007.08 1006.97 1006.91 1006.93 1007.02 1007.17 1007.34 1007.49 1007.61 1007.71 1007.83 1008.00 1008.29 1008.72 1009.30 1010.01 1010.77 1011.53 1012.22 1012.79 1013.21 1013.49 1013.67 1013.78 1013.88 1014.01 1014.19 1014.41 1014.67 1014.95 1015.22 1015.48 1015.72
1006.64 1006.44 1006.40 1006.51 1006.73 1006.97 1007.18 1007.30 1007.34 1007.30 1007.22 1007.17 1007.16 1007.23 1007.34 1007.48 1007.61 1007.70 1007.74 1007.77 1007.84 1007.99 1008.28 1008.73 1009.35 1010.10 1010.91 1011.71 1012.42 1013.01 1013.45 1013.75 1013.95 1014.10 1014.23 1014.38 1014.57 1014.80 1015.04 1015.30 1015.55 1015.78 1015.99
1006.52 1006.42 1006.46 1006.62 1006.86 1007.11 1007.31 1007.43 1007.47 1007.45 1007.40 1007.38 1007.40 1007.48 1007.59 1007.69 1007.77 1007.80 1007.79 1007.78 1007.83 1007.98 1008.30 1008.80 1009.47 1010.27 1011.11 1011.94 1012.68 1013.28 1013.73 1014.05 1014.28 1014.45 1014.61 1014.78 1014.97 1015.18 1015.41 1015.62 1015.83 1016.03 1016.21
1006.47 1006.46 1006.58 1006.79 1007.05 1007.31 1007.50 1007.61 1007.64 1007.61 1007.58 1007.56 1007.58 1007.65 1007.73 1007.81 1007.85 1007.84 1007.81 1007.80 1007.86 1008.06 1008.43 1008.99 1009.71 1010.55 1011.42 1012.26 1012.99 1013.59 1014.04 1014.37 1014.61 1014.80 1014.98 1015.16 1015.34 1015.53 1015.71 1015.89 1016.05 1016.20 1016.35
1006.51 1006.58 1006.76 1007.01 1007.29 1007.53 1007.71 1007.80 1007.80 1007.76 1007.70 1007.67 1007.67 1007.72 1007.79 1007.84 1007.87 1007.87 1007.85 1007.88 1008.00 1008.26 1008.70 1009.32 1010.09 1010.95 1011.82 1012.64 1013.34 1013.91 1014.34 1014.66 1014.90 1015.10 1015.29 1015.47 1015.64 1015.81 1015.95 1016.08 1016.20 1016.31 1016.44
1006.67 1006.78 1006.99 1007.26 1007.54 1007.77 1007.91 1007.96 1007.93 1007.85 1007.77 1007.71 1007.70 1007.73 1007.79 1007.85 1007.89 1007.92 1007.96 1008.06 1008.26 1008.61 1009.12 1009.79 1010.58 1011.43 1012.27 1013.04 1013.68 1014.20 1014.59 1014.88 1015.12 1015.32 1015.51 1015.69 1015.86 1016.01 1016.14 1016.23 1016.31 1016.40 1016.51
1006.92 1007.06 1007.29 1007.55 1007.80 1008.00 1008.10 1008.10 1008.03 1007.92 1007.81 1007.74 1007.72 1007.75 1007.81 1007.89 1007.97 1008.06 1008.17 1008.35 1008.63 1009.05 1009.62 1010.32 1011.12 1011.93 1012.72 1013.41 1013.98 1014.43 1014.77 1015.03 1015.25 1015.45 1015.66 1015.85 1016.04 1016.19 1016.30 1016.38 1016.45 1016.52 1016.63
1007.26 1007.41 1007.63 1007.87 1008.08 1008.22 1008.27 1008.23 1008.12 1007.98 1007.86 1007.79 1007.78 1007.82 1007.91 1008.03 1008.15 1008.30 1008.47 1008.73 1009.08 1009.56 1010.16 1010.87 1011.64 1012.41 1013.12 1013.73 1014.23 1014.60 1014.89 1015.13 1015.34 1015.56 1015.78 1016.01 1016.21 1016.38 1016.51 1016.60 1016.67 1016.75 1016.86
1007.68 1007.83 1008.03 1008.23 1008.38 1008.46 1008.46 1008.37 1008.23 1008.09 1007.97 1007.92 1007.93 1008.01 1008.14 1008.28 1008.45 1008.64 1008.87 1009.17 1009.56 1010.06 1010.68 1011.37 1012.10 1012.82 1013.47 1014.02 1014.45 1014.78 1015.03 1015.25 1015.47 1015.70 1015.95 1016.21 1016.45 1016.66 1016.82 1016.93 1017.02 1017.12 1017.23
1008.15 1008.31 1008.48 1008.63 1008.72 1008.74 1008.68 1008.55 1008.40 1008.27 1008.18 1008.16 1008.21 1008.33 1008.49 1008.67 1008.87 1009.08 1009.33 1009.64 1010.05 1010.55 1011.15 1011.82 1012.52 1013.20 1013.80 1014.31 1014.71 1015.02 1015.26 1015.48 1015.71 1015.96 1016.24 1016.53 1016.81 1017.06 1017.26 1017.41 1017.53 1017.64 1017.76
1008.66 1008.82 1008.97 1009.06 1009.09 1009.05 1008.94 1008.79 1008.64 1008.53 1008.49 1008.52 1008.62 1008.78 1008.97 1009.17 1009.38 1009.59 1009.83 1010.14 1010.53 1011.01 1011.59 1012.24 1012.92 1013.58 1014.17 1014.67 1015.07 1015.39 1015.65 1015.89 1016.13 1016.40 1016.70 1017.01 1017.31 1017.59 1017.82 1018.00 1018.15 1018.28 1018.41
1009.16 1009.34 1009.46 1009.51 1009.48 1009.39 1009.24 1009.09 1008.95 1008.88 1008.88 1008.97 1009.12 1009.32 1009.53 1009.74 1009.94 1010.13 1010.36 1010.63 1011.00 1011.46 1012.03 1012.67 1013.34 1014.01 1014.63 1015.16 1015.60 1015.95 1016.24 1016.50 1016.75 1017.02 1017.32 1017.62 1017.93 1018.22 1018.46 1018.67 1018.84 1018.98 1019.10
1009.64 1009.83 1009.94 1009.95 1009.87 1009.74 1009.57 1009.42 1009.31 1009.28 1009.34 1009.47 1009.67 1009.90 1010.12 1010.33 1010.51 1010.69 1010.88 1011.14 1011.48 1011.93 1012.49 1013.13 1013.83 1014.54 1015.20 1015.79 1016.28 1016.69 1017.02 1017.30 1017.55 1017.81 1018.08 1018.35 1018.63 1018.90 1019.14 1019.35 1019.52 1019.66 1019.78
1010.05 1010.27 1010.36 1010.35 1010.24 1010.08 1009.91 1009.78 1009.70 1009.72 1009.82 1010.00 1010.23 1010.47 1010.70 1010.90 1011.07 1011.23 1011.41 1011.65 1011.99 1012.44 1013.01 1013.67 1014.41 1015.16 1015.89 1016.54 1017.10 1017.56 1017.93 1018.23 1018.48 1018.70 1018.92 1019.14 1019.36 1019.58 1019.79 1019.98 1020.14 1020.27 1020.36
1010.39 1010.62 1010.72 1010.69 1010.57 1010.41 1010.26 1010.15 1010.12 1010.18 1010.32 1010.53 1010.78 1011.02 1011.25 1011.44 1011.60 1011.75 1011.93 1012.18 1012.52 1012.99 1013.58 1014.28 1015.05 1015.85 1016.63 1017.35 1017.97 1018.49 1018.89 1019.20 1019.43 1019.61 1019.77 1019.91 1020.06 1020.22 1020.37 1020.52 1020.66 1020.76 1020.84
1010.65 1010.90 1011.00 1010.97 1010.86 1010.73 1010.61 1010.54 1010.56 1010.66 1010.83 1011.06 1011.30 1011.54 1011.75 1011.93 1012.09 1012.25 1012.45 1012.72 1013.09 1013.59 1014.20 1014.93 1015.72 1016.56 1017.38 1018.13 1018.80 1019.35 1019.79 1020.10 1020.32 1020.47 1020.57 1020.65 1020.72 1020.80 1020.89 1020.99 1021.09 1021.16 1021.21
1010.84 1011.10 1011.21 1011.21 1011.13 1011.04 1010.98 1010.97 1011.04 1011.17 1011.36 1011.58 1011.81 1012.03 1012.22 1012.40 1012.56 1012.74 1012.97 1013.28 1013.69 1014.21 1014.84 1015.57 1016.37 1017.21 1018.04 1018.81 1019.50 1020.08 1020.54 1020.87 1021.10 1021.23 1021.29 1021.32 1021.33 1021.34 1021.37 1021.42 1021.47 1021.51 1021.53
1010.98 1011.26 1011.39 1011.42 1011.40 1011.37 1011.38 1011.44 1011.55 1011.72 1011.92 1012.13 1012.33 1012.52 1012.69 1012.85 1013.03 1013.23 1013.50 1013.85 1014.29 1014.83 1015.47 1016.18 1016.96 1017.77 1018.57 1019.33 1020.02 1020.62 1021.10 1021.47 1021.71 1021.85 1021.91 1021.92 1021.89 1021.86 1021.84 1021.84 1021.84 1021.85 1021.84
1011.10 1011.39 1011.55 1011.63 1011.67 1011.72 1011.81 1011.94 1012.11 1012.31 1012.51 1012.70 1012.87 1013.02 1013.16 1013.32 1013.50 1013.73 1014.04 1014.42 1014.89 1015.44 1016.06 1016.74 1017.46 1018.21 1018.95 1019.68 1020.35 1020.95 1021.46 1021.86 1022.16 1022.34 1022.43 1022.45 1022.42 1022.37 1022.32 1022.27 1022.24 1022.21 1022.17
1011.22 1011.52 1011.72 1011.85 1011.96 1012.09 1012.25 1012.46 1012.68 1012.90 1013.10 1013.27 1013.41 1013.53 1013.65 1013.79 1013.98 1014.24 1014.58 1014.99 1015.48 1016.02 1016.60 1017.23 1017.87 1018.53 1019.20 1019.86 1020.50 1021.10 1021.63 1022.08 1022.43 1022.68 1022.83 1022.90 1022.90 1022.85 1022.79 1022.71 1022.65 1022.59 1022.53
1011.35 1011.67 1011.89 1012.06 1012.24 1012.44 1012.68 1012.95 1013.22 1013.46 1013.67 1013.82 1013.93 1014.02 1014.12 1014.26 1014.46 1014.74 1015.11 1015.54 1016.03 1016.56 1017.10 1017.65 1018.21 1018.77 1019.35 1019.93 1020.52 1021.10 1021.65 1022.14 1022.56 1022.89 1023.11 1023.24 1023.28 1023.27 1023.21 1023.12 1023.04 1022.95 1022.87
1011.51 1011.83 1012.06 1012.27 1012.49 1012.75 1013.05 1013.37 1013.68 1013.95 1014.16 1014.30 1014.40 1014.47 1014.56 1014.70 1014.91 1015.21 1015.60 1016.05 1016.54 1017.05 1017.54 1018.03 1018.50 1018.96 1019.44 1019.94 1020.47 1021.01 1021.56 1022.08 1022.55 1022.94 1023.23 1023.43 1023.53 1023.56 1023.52 1023.44 1023.35 1023.24 1023.15
1011.69 1011.99 1012.23 1012.45 1012.70 1013.00 1013.33 1013.68 1014.02 1014.31 1014.53 1014.68 1014.77 1014.84 1014.93 1015.08 1015.31 1015.63 1016.04 1016.50 1016.99 1017.48 1017.94 1018.36 1018.75 1019.13 1019.52 1019.94 1020.39 1020.89 1021.41 1021.93 1022.42 1022.85 1023.20 1023.45 1023.61 1023.68 1023.68 1023.62 1023.53 1023.43 1023.32
1011.87 1012.16 1012.38 1012.60 1012.85 1013.16 1013.51 1013.88 1014.24 1014.54 1014.78 1014.93 1015.04 1015.12 1015.23 1015.39 1015.64 1015.98 1016.40 1016.87 1017.36 1017.84 1018.27 1018.65 1018.99 1019.30 1019.62 1019.95 1020.33 1020.76 1021.23 1021.71 1022.19 1022.63 1023.00 1023.30 1023.50 1023.62 1023.66 1023.64 1023.57 1023.48 1023.38
Thickness
5795 5795 5792 5789 5787 5785 5784 5783 5782 5782 5780 5779 5777 5776 5775 5774 5773 5771 5770 5769 5768 5767 5766 5765 5764 5763 5762 5761 5758 5757 5756 5755 5754 5753 5753 5752 5750 5749 5748 5747 5746 5745 5744
5800 5796 5793 5789 5786 5784 5783 5782 5781 5780 5778 5777 5775 5774 5773 5771 5770 5769 5768 5767 5766 5764 5763 5762 5761 5760 5759 5758 5756 5755 5754 5753 5752 5751 5750 5749 5748 5747 5746 5745 5744 5743 5742
5801 5796 5792 5789 5786 5783 5781 5780 5778 5777 5776 5774 5773 5772 5770 5769 5768 5767 5766 5764 5763 5762 5761 5760 5758 5757 5757 5756 5754 5753 5752 5751 5750 5749 5747 5746 5745 5744 5744 5742 5741 5741 5740
5800 5796 5792 5788 5785 5782 5779 5778 5776 5775 5773 5772 5771 5769 5768 5766 5765 5764 5763 5762 5760 5759 5758 5757 5756 5755 5754 5753 5752 5751 5750 5749 5747 5746 5745 5744 5743 5742 5742 5741 5740 5739 5738
5798 5794 5790 5786 5783 5780 5778 5775 5774 5772 5771 5769 5768 5767 5765 5764 5763 5761 5760 5759 5758 5757 5756 5754 5753 5752 5751 5750 5749 5748 5748 5746 5745 5743 5742 5742 5741 5741 5740 5739 5738 5737 5736
5794 5791 5788 5784 5781 5779 5776 5774 5771 5769 5768 5767 5765 5764 5762 5761 5760 5758 5757 5756 5755 5754 5753 5752 5751 5750 5749 5748 5747 5746 5745 5744 5743 5741 5740 5739 5739 5739 5738 5737 5736 5735 5735
5791 5788 5785 5782 5779 5776 5774 5771 5769 5767 5765 5764 5762 5761 5759 5758 5757 5755 5754 5753 5752 5751 5751 5750 5749 5748 5747 5746 5745 5744 5743 5742 5740 5739 5738 5737 5737 5736 5736 5735 5734 5734 5734
5790 5786 5782 5779 5776 5774 5771 5769 5767 5765 5763 5761 5760 5758 5756 5755 5753 5752 5751 5750 5749 5748 5747 5747 5746 5745 5745 5744 5743 5742 5740 5739 5738 5737 5736 5735 5735 5735 5734 5733 5733 5732 5732
5787 5783 5780 5777 5774 5772 5769 5767 5765 5763 5760 5758 5756 5755 5754 5752 5751 5749 5748 5747 5746 5745 5745 5744 5744 5743 5743 5742 5741 5739 5738 5737 5735 5735 5734 5733 5733 5733 5732 5732 5732 5731 5730
5782 5779 5777 5774 5772 5769 5767 5764 5762 5760 5757 5755 5753 5752 5751 5750 5748 5747 5746 5745 5744 5743 5742 5741 5741 5741 5740 5740 5739 5737 5736 5734 5733 5732 5731 5731 5731 5731 5731 5731 5730 5729 5728
5778 5776 5774 5772 5769 5767 5764 5762 5759 5757 5755 5753 5751 5750 5748 5747 5746 5745 5744 5742 5741 5740 5739 5739 5738 5738 5737 5736 5735 5734 5733 5732 5731 5729 5729 5729 5729 5729 5729 5728 5728 5727 5726
5773 5773 5772 5769 5767 5765 5762 5759 5757 5755 5752 5750 5749 5747 5745 5744 5743 5742 5741 5740 5739 5738 5737 5736 5735 5735 5734 5734 5732 5731 5730 5729 5728 5727 5727 5727 5726 5726 5726 5725 5725 5725 5724
5773 5771 5770 5768 5766 5763 5760 5757 5754 5752 5749 5748 5745 5744 5742 5741 5739 5739 5738 5738 5736 5735 5734 5733 5732 5731 5730 5730 5729 5728 5727 5726 5726 5725 5725 5724 5724 5724 5723 5722 5722 5722 5722
5770 5769 5768 5766 5763 5760 5757 5754 5751 5749 5747 5745 5743 5741 5739 5738 5736 5736 5735 5735 5733 5732 5731 5729 5728 5727 5727 5726 5725 5725 5724 5724 5723 5723 5722 5722 5721 5721 5720 5720 5719 5719 5719
5768 5766 5765 5763 5760 5757 5755 5752 5749 5746 5745 5743 5741 5739 5737 5736 5734 5733 5732 5731 5730 5729 5728 5726 5725 5724 5723 5723 5722 5722 5721 5721 5721 5720 5720 5719 5718 5718 5718 5717 5716 5716 5716
5765 5763 5762 5759 5756 5754 5752 5749 5747 5744 5742 5740 5738 5736 5735 5734 5732 5730 5729 5728 5727 5726 5725 5724 5722 5721 5720 5719 5718 5718 5718 5718 5718 5718 5717 5716 5715 5715 5715 5714 5714 5713 5713
5763 5761 5758 5756 5754 5751 5749 5746 5744 5741 5738 5737 5735 5734 5732 5731 5730 5728 5726 5725 5724 5723 5722 5721 5719 5718 5717 5716 5715 5715 5715 5715 5715 5714 5714 5713 5713 5712 5712 5711 5711 5710 5710
5760 5757 5755 5754 5751 5748 5745 5743 5740 5738 5735 5733 5732 5730 5730 5729 5727 5726 5724 5723 5722 5720 5719 5717 5716 5714 5712 5711 5711 5711 5711 5711 5712 5711 5711 5710 5709 5709 5709 5708 5708 5707 5707
5758 5754 5751 5750 5747 5744 5741 5739 5737 5734 5732 5731 5729 5727 5727 5725 5724 5723 5721 5720 5719 5717 5715 5714 5712 5710 5708 5707 5707 5707 5707 5707 5708 5708 5707 5707 5706 5706 5705 5705 5704 5704 5704
5755 5751 5748 5745 5743 5740 5737 5734 5732 5729 5727 5726 5725 5724 5723 5722 5721 5720 5718 5716 5715 5713 5711 5710 5708 5707 5705 5704 5704 5703 5703 5703 5704 5704 5704 5703 5703 5703 5702 5702 5701 5701 5700
5750 5746 5744 5740 5738 5735 5732 5728 5725 5722 5722 5721 5721 5721 5721 5719 5718 5716 5715 5713 5711 5710 5708 5707 5704 5702 5701 5700 5698 5697 5698 5699 5700 5700 5700 5699 5699 5699 5699 5698 5698 5697 5697
5745 5742 5740 5736 5733 5731 5729 5726 5723 5719 5717 5717 5717 5717 5717 5716 5714 5712 5711 5709 5708 5706 5703 5703 5702 5699 5697 5697 5694 5691 5689 5691 5694 5696 5696 5695 5695 5695 5695 5695 5694 5694 5693
5741 5738 5737 5733 5730 5727 5724 5721 5718 5714 5712 5711 5710 5711 5711 5711 5710 5709 5708 5706 5704 5703 5700 5699 5699 5698 5694 5693 5693 5690 5685 5683 5685 5689 5691 5691 5691 5691 5691 5691 5691 5690 5690
5738 5736 5733 5730 5727 5724 5721 5717 5714 5710 5707 5707 5707 5707 5707 5707 5706 5705 5704 5702 5701 5700 5698 5697 5696 5696 5694 5690 5688 5688 5686 5685 5682 5681 5684 5685 5686 5686 5687 5687 5687 5687 5686
5735 5731 5728 5725 5721 5719 5716 5713 5710 5706 5704 5703 5703 5703 5702 5702 5702 5701 5700 5698 5697 5696 5695 5694 5692 5692 5691 5689 5686 5684 5682 5681 5681 5678 5677 5679 5681 5682 5683 5683 5684 5683 5683
5729 5726 5723 5720 5717 5715 5712 5709 5706 5703 5700 5699 5698 5697 5697 5697 5697 5697 5696 5695 5694 5693 5691 5690 5689 5688 5687 5686 5685 5683 5681 5679 5677 5676 5674 5673 5674 5678 5679 5680 5680 5680 5680